This demonstration page uses our WeatherBlox Daily Observations layout. Learn more.

Left ArrowRight Arrow

34.16533, -84.80231

Hourly Observations for April 19, 2016

Temp ( °F °C ) Dew Point ( °F °C ) Humidity (%) Winds ( mph kmh ) Pressure ( in mb ) Visibility ( mi km ) Precip ( " mm )
12:53 am 00:53 Clear 50 10 46 7.8 86 86 Calm 30.24 1024 10 16 0.00 0.00
1:53 am 01:53 Clear 49 9.4 46 7.8 90 90 Calm 30.22 1024 10 16 0.00 0.00
2:53 am 02:53 Clear 48 8.9 46 7.8 93 93 Calm 30.22 1023 10 16 0.00 0.00
3:53 am 03:53 Clear 46 7.8 45 7.2 96 96 Calm 30.20 1023 10 16 0.00 0.00
4:53 am 04:53 Clear 45 7.2 44 6.7 97 97 Calm 30.21 1023 10 16 0.00 0.00
5:53 am 05:53 Clear 46 7.8 44 6.7 93 93 Calm 30.21 1023 10 16 0.00 0.00
6:53 am 06:53 Clear 45 7.2 44 6.7 97 97 Calm 30.22 1023 10 16 0.00 0.00
7:53 am 07:53 Sunny 46 7.8 45 7.2 96 96 Calm 30.23 1024 10 16 0.00 0.00
8:53 am 08:53 Sunny 56 13.3 51 10.6 84 84 Calm 30.22 1023 10 16 0.00 0.00
9:53 am 09:53 Sunny 62 16.7 53 11.7 73 73 Calm 30.24 1024 10 16 0.00 0.00
10:53 am 10:53 Sunny 70 21.1 48 8.9 46 46 VRB 3 6 30.23 1024 10 16 0.00 0.00
11:53 am 11:53 Sunny 77 25 46 7.8 33 33 VRB 5 7 30.21 1023 10 16 0.00 0.00
12:53 pm 12:53 Sunny 79 26.1 44 6.7 29 29 VRB 3 6 30.19 1022 10 16 0.00 0.00
1:53 pm 13:53 Sunny 78 25.6 45 7.2 31 31 VRB 3 6 30.16 1021 10 16 0.00 0.00
2:53 pm 14:53 Sunny 80 26.7 46 7.8 30 30 VRB 5 7 30.13 1020 10 16 0.00 0.00
3:53 pm 15:53 Sunny 81 27.2 45 7.2 28 28 Calm 30.11 1020 10 16 0.00 0.00
4:53 pm 16:53 Sunny 79 26.1 46 7.8 31 31 Calm 30.10 1019 10 16 0.00 0.00
5:53 pm 17:53 Sunny 79 26.1 49 9.4 35 35 Calm 30.09 1019 10 16 0.00 0.00
6:53 pm 18:53 Sunny 75 23.9 51 10.6 43 43 Calm 30.09 1019 10 16 0.00 0.00
7:53 pm 19:53 Sunny 71 21.7 53 11.7 53 53 Calm 30.10 1019 10 16 0.00 0.00
8:53 pm 20:53 Clear 67 19.4 51 10.6 57 57 Calm 30.10 1019 10 16 0.00 0.00
9:53 pm 21:53 Clear 62 16.7 51 10.6 67 67 Calm 30.11 1020 10 16 0.00 0.00
10:53 pm 22:53 Clear 60 15.6 51 10.6 72 72 Calm 30.10 1019 10 16 0.00 0.00
11:53 pm 23:53 Clear 56 13.3 51 10.6 84 84 Calm 30.09 1019 10 16 0.00 0.00

Powered by AerisWeather